COSMOS 1019

Satellite information

Favourite Embed

Satellite Type and Status

PAYLOADIN ORBIT

Key statistics

Satellite COSMOS 1019 at a glance.

Uptime

17198

Days in orbit

Revolutions

≈ 12.5

Per day

Orbit

LEO

Low Earth Orbit

Inclination

74.0

Latest

Satellite identification and parameters

Extended collection of information and parameters for COSMOS 1019.

Object identification

Identified? True

Debris? False

Object name: COSMOS 1019

International designator: 1978-056G

Object number (NORAD): 10936

Object ID (CCSDS): 10936

Country: COMMONWEALTH OF INDEPENDENT STATES (CIS)

Current information (Y/N): Y

RCS size: MEDIUM

Orbital parameters

Period: 115.002 minutes

Inclination: 74.0289 deg

SMA: 7833.633 km

Apoapsis: 1487.274 km

Periapsis: 1423.723 km

RAAN: 330.3677 deg

Eccentricy: 0.0040563

Argument of periapsis: 103.9652 deg

Mean anomaly: 14.3012 deg

Mean motion: 12.52154473 rev/day

Mean motion (dot): -0.00000021 rev/day2

B* drag term: -0.00003298 1/REarth

Two-line elements (TLE)

Creation date: July 7, 2025, 10:26 p.m.

Reference frame: TEME

Reference center: EARTH

Epoch: July 7, 2025, 9:05 p.m. UTC

TLE line 0: 0 COSMOS 1019

TLE line 1: 1 10936U 78056G 25188.87904839 -.00000021 00000-0 -32980-4 0 9998

TLE line 2: 2 10936 74.0289 330.3677 0040563 103.9652 14.3012 12.52154473152366

Live tracking on map

Real-time ground track for satellite COSMOS 1019.

In-orbit conjunctions

There are no conjunctions computed for COSMOS 1019, at the moment. Check back to stay up to date, as we update our databases every day.

Go to all conjunctions

Associated space launch

Military communications satellites

COSMOS 1019 was lifted into orbit during the mission ‘Kosmos-3M | Strela-1M 145-152’, on board a Kosmos-3M space rocket.

The launch took place on June 7, 1978, 10 p.m. from 132/1 (132L).

For more information about the launch, click the button.

Launch to space Kosmos-3M | Strela-1M 145-152
Kosmos-3M | Strela-1M 145-152

Agency: N/A

Status: Launch Successful

Launch date: June 7, 1978, 10 p.m. UTC

Rocket: Kosmos-3M

Launch pad: 132/1 (132L)

Location: Plesetsk Cosmodrome, Russian Federation

...

Latest news about this satellite

There are no fresh news available about this satellite. Check back as we update our databases every day.


Newsletter sign-up

Weekly statistics, charts and insights to help you stay on top of the space industry.